Litchfield, IL

1:58 AM CDT on April 25, 2018 (GMT -0500)
Litchfield

Weather History for K3LF - May, 2013

Change the Weather History Date:

Saturday, May 4, 2013

  Actual Average (KALN) Record (KALN)
Temperature  
Mean Temperature 44 °F -  
Max Temperature 46 °F 71 °F 87 °F (2001)
Min Temperature 41 °F 53 °F 33 °F (2011)
Degree Days  
Heating Degree Days 22    
Moisture  
Dew Point 43 °F    
Average Humidity 95    
Maximum Humidity 99    
Minimum Humidity 90    
Precipitation  
Precipitation 0.20 in - - ()
Sea Level Pressure  
Sea Level Pressure 29.93 in    
Wind  
Wind Speed 6 mph (SSE)    
Max Wind Speed 13 mph    
Max Gust Speed -    
Visibility 8 miles    
Events Rain    
Averages and records for this station are not official NWS values.
T = Trace of Precipitation, MM = Missing Value Source: NWS Daily Summary

Daily Weather History Graph

Daily Weather History Graph

Search for Another Location

Airport or City:

Astronomy

May. 04, 2013 Rise Set
Actual Time 5:56 AM CDT 7:54 PM CDT
Civil Twilight 5:27 AM CDT 8:24 PM CDT
Nautical Twilight 4:51 AM CDT 8:59 PM CDT
Astronomical Twilight 4:13 AM CDT 9:38 PM CDT
Moon 2:52 AM CDT (5/4) 2:54 PM CDT (5/4)
Length of Visible Light 14h 56m
Length of Day
13h 58m
Waning Crescent, 27% of the Moon is Illuminated
May 4
Waning Crescent
May 9
New
May 17
First Quarter
May 24
Full
May 31
Last Quarter

Hourly Weather History & Observations

Time (CDT) Temp. Windchill Dew Point Humidity Pressure Visibility Wind Dir Wind Speed Gust Speed Precip Events Conditions
12:15 AM 44.1 °F 38.1 °F 43.7 °F 99% 29.85 in 10.0 mi South 11.5 mph - N/A   Light Drizzle
12:35 AM 43.7 °F 37.3 °F 43.5 °F 99% 29.85 in 7.0 mi South 12.7 mph - N/A   Overcast
12:55 AM 43.5 °F 38.3 °F 42.8 °F 97% 29.85 in 10.0 mi South 9.2 mph - N/A   Light Drizzle
1:15 AM 43.3 °F 39.2 °F 42.8 °F 98% 29.84 in 7.0 mi SSE 6.9 mph - N/A Rain Light Rain
1:35 AM 43.2 °F 39.7 °F 42.8 °F 99% 29.84 in 5.0 mi SSE 5.8 mph - N/A Rain Light Rain
1:55 AM 43.0 °F 38.8 °F 42.8 °F 99% 29.84 in 4.0 mi SSE 6.9 mph - 0.01 in   Overcast
2:15 AM 43.2 °F 39.0 °F 42.8 °F 99% 29.84 in 5.0 mi SSE 6.9 mph - N/A Rain Light Rain
2:35 AM 43.0 °F 37.7 °F 42.6 °F 99% 29.85 in 7.0 mi SSE 9.2 mph - N/A Rain Light Rain
2:55 AM 42.8 °F 37.5 °F 42.1 °F 97% 29.85 in 10.0 mi South 9.2 mph - 0.01 in Rain Rain
3:15 AM 42.4 °F 36.5 °F 41.9 °F 98% 29.86 in 10.0 mi South 10.4 mph - N/A   Light Drizzle
3:35 AM 42.3 °F 35.9 °F 41.5 °F 97% 29.86 in 7.0 mi SSE 11.5 mph - N/A   Overcast
3:55 AM 42.1 °F 37.1 °F 41.7 °F 99% 29.87 in 5.0 mi SSE 8.1 mph - 0.01 in   Drizzle
4:15 AM 42.1 °F 37.1 °F 41.4 °F 97% 29.86 in 7.0 mi South 8.1 mph - N/A Rain Light Rain
4:35 AM 42.1 °F 37.1 °F 41.2 °F 97% 29.86 in 10.0 mi South 8.1 mph - N/A Rain Light Rain
4:55 AM 41.9 °F 38.2 °F 41.0 °F 97% 29.86 in 10.0 mi SSE 5.8 mph - 0.01 in Rain Rain
5:15 AM 41.9 °F 38.2 °F 41.0 °F 97% 29.86 in 10.0 mi SSE 5.8 mph - N/A Rain Rain
5:35 AM 42.1 °F 37.7 °F 41.2 °F 97% 29.87 in 10.0 mi SSE 6.9 mph - 0.01 in   Light Drizzle
5:55 AM 41.9 °F 40.0 °F 41.2 °F 97% 29.86 in 10.0 mi SE 3.5 mph - 0.01 in   Drizzle
6:15 AM 41.9 °F 39.0 °F 41.0 °F 97% 29.87 in 7.0 mi SE 4.6 mph - 0.01 in Rain Rain
6:35 AM 41.9 °F 38.2 °F 41.0 °F 97% 29.88 in 10.0 mi SSW 5.8 mph - 0.02 in Rain Rain
6:55 AM 41.7 °F 38.0 °F 40.8 °F 97% 29.90 in 7.0 mi SSW 5.8 mph - 0.04 in Rain Light Rain
7:15 AM 41.9 °F 37.5 °F 41.0 °F 97% 29.91 in 10.0 mi South 6.9 mph - 0.01 in Rain Light Rain
7:35 AM 41.9 °F 37.5 °F 41.0 °F 97% 29.92 in 5.0 mi South 6.9 mph - 0.03 in Rain Light Rain
7:55 AM 41.9 °F 37.5 °F 41.0 °F 97% 29.92 in 7.0 mi South 6.9 mph - 0.05 in Rain Rain
8:15 AM 41.9 °F 38.2 °F 41.0 °F 97% 29.92 in 5.0 mi SSW 5.8 mph - 0.02 in Rain Light Rain
8:35 AM 41.9 °F 38.2 °F 41.0 °F 97% 29.92 in 7.0 mi South 5.8 mph - 0.03 in Rain Light Rain
9:15 AM 42.4 °F 38.8 °F 41.0 °F 95% 29.93 in 10.0 mi South 5.8 mph - 0.01 in Rain Rain
9:35 AM 42.6 °F - 41.2 °F 95% 29.93 in 10.0 mi Calm Calm - 0.01 in Rain Light Rain
9:55 AM 42.6 °F - 40.5 °F 92% 29.93 in 10.0 mi Calm Calm - 0.02 in Rain Light Rain
10:15 AM 43.0 °F - 40.5 °F 91% 29.92 in 10.0 mi Calm Calm - N/A Rain Light Rain
10:35 AM 43.3 °F - 40.6 °F 90% 29.93 in 10.0 mi Calm Calm - 0.01 in Rain Light Rain
10:55 AM 43.7 °F - 41.4 °F 91% 29.94 in 10.0 mi Calm Calm - 0.01 in   Light Drizzle
11:15 AM 43.7 °F - 41.4 °F 91% 29.94 in 7.0 mi Calm Calm - N/A Rain Light Rain
11:35 AM 43.9 °F - 41.4 °F 91% 29.94 in 10.0 mi Calm Calm - N/A   Light Drizzle
11:55 AM 44.6 °F - 41.9 °F 90% 29.93 in 10.0 mi Calm Calm - N/A   Overcast
12:15 PM 44.2 °F - 41.7 °F 91% 29.94 in 10.0 mi Calm Calm - N/A   Overcast
12:35 PM 44.6 °F 43.1 °F 42.1 °F 91% 29.94 in 10.0 mi South 3.5 mph - N/A   Overcast
12:55 PM 45.1 °F - 42.6 °F 91% 29.94 in 10.0 mi Calm Calm - N/A   Overcast
1:15 PM 45.0 °F - 42.4 °F 91% 29.94 in 10.0 mi Calm Calm - N/A   Overcast
1:35 PM 45.5 °F 41.8 °F 42.8 °F 90% 29.94 in 7.0 mi South 6.9 mph - N/A Rain Light Rain
1:55 PM 45.7 °F 44.4 °F 43.3 °F 92% 29.94 in 7.0 mi SSE 3.5 mph - N/A   Overcast
2:15 PM 45.7 °F 43.4 °F 43.3 °F 92% 29.94 in 5.0 mi SSE 4.6 mph - N/A   Overcast
2:35 PM 45.5 °F 44.2 °F 44.2 °F 95% 29.95 in 3.0 mi SSE 3.5 mph - N/A   Overcast
2:55 PM 45.1 °F 43.7 °F 43.7 °F 95% 29.94 in 5.0 mi South 3.5 mph - N/A Rain Light Rain
3:15 PM 45.7 °F 43.4 °F 43.7 °F 93% 29.94 in 10.0 mi SSE 4.6 mph - N/A   Overcast
3:35 PM 45.9 °F 42.9 °F 44.2 °F 94% 29.94 in 10.0 mi SSW 5.8 mph - N/A   Overcast
3:55 PM 45.5 °F 43.2 °F 43.7 °F 93% 29.95 in 10.0 mi SSW 4.6 mph - N/A   Overcast
4:15 PM 45.5 °F 42.5 °F 43.7 °F 93% 29.95 in 10.0 mi SSW 5.8 mph - N/A   Overcast
4:35 PM 45.7 °F 42.0 °F 44.1 °F 94% 29.96 in 10.0 mi South 6.9 mph - N/A   Overcast
4:55 PM 45.7 °F 44.4 °F 44.2 °F 95% 29.96 in 7.0 mi SSE 3.5 mph - N/A   Overcast
5:15 PM 45.9 °F 44.6 °F 43.7 °F 92% 29.96 in 7.0 mi SSE 3.5 mph - N/A   Overcast
5:35 PM 46.2 °F 45.0 °F 44.1 °F 92% 29.97 in 10.0 mi SE 3.5 mph - N/A   Overcast
5:55 PM 46.4 °F 44.3 °F 44.2 °F 92% 29.97 in 10.0 mi SSE 4.6 mph - N/A   Overcast
6:15 PM 46.0 °F 44.8 °F 44.4 °F 94% 29.97 in 7.0 mi SSE 3.5 mph - N/A   Overcast
6:35 PM 45.7 °F 44.4 °F 44.8 °F 97% 29.98 in 7.0 mi SSE 3.5 mph - N/A   Overcast
6:55 PM 45.5 °F 43.2 °F 44.6 °F 97% 29.98 in 4.0 mi SSW 4.6 mph - N/A   Overcast
7:15 PM 45.5 °F 43.2 °F 44.2 °F 95% 29.98 in 4.0 mi South 4.6 mph - N/A   Overcast
7:35 PM 45.5 °F 44.2 °F 44.1 °F 95% 29.99 in 10.0 mi SSE 3.5 mph - N/A   Overcast
7:55 PM 45.5 °F - 44.1 °F 95% 30.00 in 4.0 mi Calm Calm - N/A   Overcast
8:15 PM 45.5 °F 44.2 °F 44.6 °F 97% 30.01 in 7.0 mi ESE 3.5 mph - N/A   Overcast
8:35 PM 45.5 °F - 43.9 °F 94% 30.01 in 10.0 mi Calm Calm - N/A   Overcast
8:55 PM 45.5 °F - 44.1 °F 95% 30.02 in 7.0 mi Calm Calm - N/A   Overcast
9:15 PM 45.1 °F 43.7 °F 44.6 °F 98% 30.02 in 10.0 mi NNE 3.5 mph - N/A   Overcast
9:35 PM 45.5 °F 44.2 °F 44.6 °F 97% 30.01 in 10.0 mi NE 3.5 mph - N/A   Light Drizzle
9:55 PM 45.5 °F 44.2 °F 44.6 °F 97% 30.01 in 10.0 mi NNE 3.5 mph - N/A   Mostly Cloudy
10:15 PM 45.0 °F 42.6 °F 44.6 °F 99% 30.01 in 10.0 mi North 4.6 mph - N/A   Overcast
10:35 PM 45.0 °F 42.6 °F 44.4 °F 98% 30.01 in 10.0 mi NNE 4.6 mph - N/A   Scattered Clouds
10:55 PM 44.6 °F 43.1 °F 44.1 °F 98% 30.01 in 10.0 mi NE 3.5 mph - N/A   Clear
11:15 PM 44.4 °F 42.9 °F 44.1 °F 99% 30.00 in 10.0 mi North 3.5 mph - N/A   Mostly Cloudy
11:35 PM 44.6 °F 42.2 °F 44.1 °F 98% 30.00 in 10.0 mi North 4.6 mph - N/A   Overcast
11:55 PM 45.5 °F 42.5 °F 44.8 °F 97% 30.00 in 10.0 mi North 5.8 mph - N/A   Overcast